[[{"header":{"parameterUnit":"m.s-1","parameterCategory":1,"la1":30.2991,"la2":30.254,"lo1":-89.0895,"lo2":-89.0444,"dy":0.0017,"dx":0.0017,"nx":28,"ny":28,"refTime":"2025-03-31T09:00:00:Z","depth":0,"parameterNumber":2,"parameterNumberName":"U-component_of_WINDS"},"data":[0,0,0,0,0,0,0,0,0,0,0,0,0,0,0,0,0,0,0,0,0,0,0,0,0,0,0,0,0,0,0,0,0,0,0,0,0,0,0,0,0,0,0,0,0,0,0,0,0,0,0,0,0,0,0,0,0,0,-1.8988,-1.8988,0,-1.8992,-1.8992,-1.8992,-1.8939,-1.8937,-1.8936,-1.8935,-1.8939,-1.8941,-1.8942,0,0,0,0,0,0,0,0,0,0,0,0,0,-1.8935,-1.8937,-1.8988,-1.8988,-1.8988,-1.8992,-1.8992,-1.8992,-1.8939,-1.8937,-1.8936,-1.8934,-1.8939,-1.8941,-1.8942,0,0,0,0,0,0,0,0,0,0,0,0,0,-1.8951,-1.8937,-1.8988,-1.8962,-1.896,-1.8992,-1.8992,-1.8992,-1.894,-1.8937,-1.8935,-1.8933,-1.8938,-1.894,-1.8943,-1.9,0,0,-1.8949,-1.895,0,0,0,0,0,0,0,0,-1.895,-1.8953,-1.8966,-1.8964,-1.8962,-1.8963,-1.8975,-1.8995,-1.894,-1.8947,-1.8935,-1.8932,-1.8949,-1.895,-1.8956,-1.9,-1.9,-1.8949,-1.8951,-1.8952,-1.8952,0,0,0,0,0,0,0,-1.8949,-1.8952,-1.899,-1.8966,-1.8964,-1.8951,-1.895,-1.8978,-1.896,-1.8947,-1.8943,-1.8944,-1.8947,-1.8954,-1.8955,-1.9,-1.8949,-1.8951,-1.8953,-1.8954,-1.9091,-1.9093,0,0,0,0,0,0,-1.8951,-1.8952,-1.899,-1.899,-1.895,-1.8953,-1.8953,-1.8965,-1.896,-1.8957,-1.8946,-1.8941,-1.8951,-1.8953,-1.8955,-1.9021,-1.8952,-1.8954,-1.8955,-1.9088,-1.9091,-1.9094,0,0,0,0,0,0,-1.895,-1.8955,-1.8989,-1.897,-1.8973,-1.8957,-1.897,-1.8966,-1.8972,-1.8959,-1.8956,-1.8956,-1.8949,-1.8952,-1.8989,-1.9021,-1.8955,-1.8957,-1.9086,-1.9089,-1.9092,-1.9154,0,0,0,0,0,0,-1.8949,-1.8955,-1.8977,-1.8971,-1.8974,-1.9023,-1.8972,-1.8967,-1.8976,-1.897,-1.8967,-1.8965,-1.8948,-1.8986,-1.8991,-1.9023,-1.8959,-1.9083,-1.9087,-1.9091,-1.915,-1.916,-1.9168,0,0,0,0,0,-1.8947,-1.8994,-1.8978,-1.8983,-1.9001,-1.9025,-1.9027,-1.9006,-1.8979,-1.9,-1.8992,-1.8965,-1.9016,-1.899,-1.8995,-1.9028,-1.9081,-1.9086,-1.9091,-1.9145,-1.9158,-1.9168,0,0,0,0,0,0,-1.9005,-1.8993,-1.8975,-1.9021,-1.9025,-1.9016,-1.9043,-1.902,-1.9032,-1.9026,-1.9,-1.8999,-1.904,-1.9038,-1.9009,-1.9083,-1.9044,-1.905,-1.9083,-1.9095,-1.9104,-1.9104,-1.896,0,0,0,0,0,-1.9023,-1.9044,-1.9032,-1.9074,-1.9077,-1.906,-1.9069,-1.9053,-1.9055,-1.9056,-1.9051,-1.9054,-1.9071,-1.9083,-1.9097,-1.9149,-1.9147,-1.9174,-1.9183,-1.9191,-1.9197,-1.9224,-1.9235,-1.9111,-1.9111,-1.9111,0,0,-1.9061,-1.9057,-1.9072,-1.9086,-1.9086,-1.9108,-1.9061,-1.9086,-1.9102,-1.906,-1.9094,-1.909,-1.9092,-1.9136,-1.9156,-1.9136,-1.9231,-1.9198,-1.9204,-1.9206,-1.923,-1.9242,-1.9253,-1.9114,-1.9114,-1.9113,0,0,-1.9141,-1.914,-1.9175,-1.9176,-1.9177,-1.9165,-1.9174,-1.9168,-1.9164,-1.9198,-1.9167,-1.9185,-1.9215,-1.9217,-1.9223,-1.9303,-1.9278,-1.9308,-1.9358,-1.9384,-1.9394,-1.9402,-1.9431,-1.9441,-1.9314,-1.9314,-1.9314,0,-1.9188,-1.922,-1.9196,-1.9223,-1.923,-1.9192,-1.9227,-1.9229,-1.9236,-1.9241,-1.9219,-1.9255,-1.9254,-1.9298,-1.9317,-1.9323,-1.9331,-1.9309,-1.9394,-1.9402,-1.941,-1.9437,-1.9448,-1.9318,-1.9318,-1.9317,-1.9317,0,-1.9277,-1.9299,-1.9327,-1.9333,-1.9344,-1.9375,-1.9355,-1.9368,-1.9351,-1.9341,-1.9376,-1.9373,-1.9386,-1.9395,-1.9379,-1.9437,-1.9424,-1.9399,-1.9359,-1.9426,-1.9451,-1.9461,-1.9323,-1.9322,-1.9321,-1.932,0,0,-1.9394,-1.9386,-1.9397,-1.9399,-1.9397,-1.9414,-1.9443,-1.9456,-1.9467,-1.9473,-1.9496,-1.9522,-1.9497,-1.9503,-1.9487,-1.951,-1.9573,-1.9481,-1.948,-1.9498,-1.9637,-1.9656,-1.9669,-1.9557,-1.9558,-1.956,-1.9637,0,-1.9472,-1.9521,-1.95,-1.9551,-1.9571,-1.9535,-1.956,-1.9562,-1.9554,-1.9569,-1.956,-1.9579,-1.9545,-1.9548,-1.957,-1.9561,-1.9601,-1.9555,-1.9578,-1.958,-1.9579,-1.9682,-1.9703,-1.9775,-1.9646,-1.9648,-1.9649,0,-1.9569,-1.9578,-1.9631,-1.9625,-1.9632,-1.9656,-1.9665,-1.9681,-1.9681,-1.9674,-1.968,-1.9658,-1.9686,-1.9646,-1.9684,-1.9653,-1.9662,-1.9659,-1.9661,-1.9663,-1.9619,-1.9686,-1.9798,-1.9809,-1.9664,-1.9663,-1.9662,0,-1.9649,-1.9674,-1.9709,-1.9712,-1.9706,-1.9723,-1.9721,-1.972,-1.9729,-1.9737,-1.9742,-1.9754,-1.9761,-1.977,-1.9752,-1.9724,-1.9792,-1.9751,-1.9787,-1.9787,-1.9803,-1.9802,-1.9918,-1.9808,-1.9808,-1.9808,-1.9808,0,-1.9738,-1.9772,-1.9745,-1.9766,-1.9803,-1.9778,-1.9815,-1.981,-1.9809,-1.9828,-1.9798,-1.9817,-1.9792,-1.9808,-1.9794,-1.9827,-1.9831,-1.9825,-1.9821,-1.9828,-1.9829,-1.9833,-1.9828,-1.9811,-1.981,-1.9809,-1.9809,0,-1.9834,-1.9818,-1.9853,-1.9844,-1.9842,-1.987,-1.9862,-1.9881,-1.987,-1.9896,-1.99,-1.9884,-1.9901,-1.9884,-1.9901,-1.9891,-1.9936,-1.9925,-1.9936,-1.9933,-1.9969,-1.9966,-2.0092,-2.0107,-1.9988,-1.9989,-1.999,0,-1.9893,-1.9918,-1.9911,-1.9922,-1.9921,-1.9939,-1.9948,-1.9924,-1.9934,-1.9937,-1.9956,-1.9971,-1.9982,-2.0012,-2.0002,-2.0015,-2.0003,-2.0046,-2.0005,-2.0011,-2.0004,-2.0003,-2.0005,-2.0055,-2.0056,-2.0058,-2.0058,0,-1.9997,-1.9987,-2.0001,-2.0011,-2.0022,-2.0029,-2.0034,-2.0044,-2.002,-2.0033,-2.005,-2.0059,-2.0076,-2.0091,-2.0101,-2.0099,-2.0075,-2.0071,-2.008,-2.0088,-2.0093,-2.0091,-1.9959,-2.0069,-2.0068,-2.0067,-2.0066,-2.0066,-2.0076,-2.0096,-2.0094,-2.011,-2.0111,-2.0116,-2.0133,-2.0125,-2.0139,-2.015,-2.0136,-2.0157,-2.0157,-2.0167,-2.0168,-2.0185,-2.0167,-2.018,-2.0183,-2.0186,-2.0192,-2.0091,-2.0186,-2.0186,-2.0186,-2.0185,-2.0185,0,-2.0179,-2.0176,-2.019,-2.0197,-2.021,-2.0185,-2.0189,-2.0201,-2.022,-2.0222,-2.0233,-2.0253,-2.0268,-2.0258,-2.0271,-2.0286,-2.0275,-2.029,-2.0289,-2.0289,-2.0207,-2.0198,-2.0298,-2.0298,-2.0298,-2.0298,-2.0298,-2.0298,-2.0234,-2.0267,-2.0257,-2.029,-2.0286,-2.0307,-2.0311,-2.0315,-2.0316,-2.034,-2.0352,-2.0345,-2.0342,-2.0354,-2.0367,-2.0363,-2.0369,-2.0388,-2.0381,-2.0306,-2.0294,-2.0284,-2.0275,-2.039,-2.039,-2.0461,-2.0461,-2.0462]},{"header":{"parameterUnit":"m.s-1","parameterCategory":1,"la1":30.2991,"la2":30.254,"lo1":-89.0895,"lo2":-89.0444,"dy":0.0017,"dx":0.0017,"nx":28,"ny":28,"refTime":"2025-03-31T09:00:00:Z","depth":0,"parameterNumber":3,"parameterNumberName":"V-component_of_WINDS"},"data":[0,0,0,0,0,0,0,0,0,0,0,0,0,0,0,0,0,0,0,0,0,0,0,0,0,0,0,0,0,0,0,0,0,0,0,0,0,0,0,0,0,0,0,0,0,0,0,0,0,0,0,0,0,0,0,0,0,0,-0.9031,-0.9032,0,-0.9061,-0.9061,-0.9061,-0.906,-0.906,-0.9059,-0.9059,-0.9089,-0.909,-0.9091,0,0,0,0,0,0,0,0,0,0,0,0,0,-0.8972,-0.8973,-0.9031,-0.9032,-0.9032,-0.9061,-0.9061,-0.9062,-0.906,-0.906,-0.9059,-0.9059,-0.9088,-0.909,-0.9091,0,0,0,0,0,0,0,0,0,0,0,0,0,-0.8999,-0.8974,-0.9031,-0.9035,-0.9035,-0.9061,-0.9061,-0.9062,-0.906,-0.906,-0.9059,-0.9059,-0.9088,-0.909,-0.9091,-0.9115,0,0,-0.9097,-0.9098,0,0,0,0,0,0,0,0,-0.8998,-0.9002,-0.9034,-0.9035,-0.9035,-0.9056,-0.9051,-0.9079,-0.9061,-0.9051,-0.9059,-0.9058,-0.9078,-0.9081,-0.9088,-0.9116,-0.9118,-0.9097,-0.9098,-0.9099,-0.9099,0,0,0,0,0,0,0,-0.8996,-0.9,-0.9043,-0.9034,-0.9035,-0.9034,-0.9038,-0.9057,-0.9068,-0.9052,-0.9052,-0.9055,-0.9079,-0.9086,-0.9089,-0.9118,-0.9097,-0.9099,-0.91,-0.91,-0.9165,-0.9166,0,0,0,0,0,0,-0.8993,-0.8999,-0.9042,-0.9044,-0.9015,-0.9036,-0.904,-0.905,-0.9068,-0.907,-0.9056,-0.9055,-0.9083,-0.9087,-0.909,-0.9117,-0.9099,-0.9101,-0.9102,-0.9165,-0.9165,-0.9166,0,0,0,0,0,0,-0.8992,-0.8997,-0.9041,-0.9021,-0.9027,-0.9038,-0.905,-0.9051,-0.9058,-0.9071,-0.9073,-0.9061,-0.9083,-0.9087,-0.9108,-0.9118,-0.9101,-0.9103,-0.9164,-0.9165,-0.9166,-0.9173,0,0,0,0,0,0,-0.899,-0.8997,-0.9006,-0.9021,-0.9028,-0.9059,-0.905,-0.9052,-0.9062,-0.9061,-0.9076,-0.9078,-0.9083,-0.9106,-0.911,-0.912,-0.9104,-0.9163,-0.9164,-0.9166,-0.9172,-0.9174,-0.9176,0,0,0,0,0,-0.8988,-0.9007,-0.9007,-0.9012,-0.904,-0.906,-0.9064,-0.9069,-0.9062,-0.9072,-0.9079,-0.9078,-0.9116,-0.9108,-0.9113,-0.9124,-0.9162,-0.9164,-0.9165,-0.9171,-0.9174,-0.9176,0,0,0,0,0,0,-0.8993,-0.9009,-0.9009,-0.9034,-0.9045,-0.906,-0.9072,-0.9071,-0.9085,-0.9084,-0.9089,-0.9093,-0.9114,-0.9121,-0.9111,-0.9146,-0.9139,-0.9141,-0.9141,-0.9144,-0.9146,-0.9143,-0.9106,0,0,0,0,0,-0.8997,-0.9013,-0.9026,-0.9046,-0.9052,-0.9061,-0.907,-0.9072,-0.9085,-0.909,-0.9099,-0.9111,-0.9125,-0.9135,-0.9149,-0.9173,-0.9176,-0.9183,-0.9185,-0.9186,-0.9188,-0.92,-0.9203,-0.9171,-0.9171,-0.9171,0,0,-0.9006,-0.9016,-0.9026,-0.9047,-0.9057,-0.9072,-0.9065,-0.9082,-0.9093,-0.9092,-0.9113,-0.912,-0.9133,-0.9155,-0.9165,-0.9162,-0.9198,-0.9188,-0.9189,-0.9191,-0.9202,-0.9205,-0.9207,-0.9172,-0.9172,-0.9172,0,0,-0.9028,-0.9038,-0.9056,-0.9065,-0.9079,-0.9085,-0.9089,-0.9103,-0.9108,-0.9128,-0.9128,-0.9141,-0.9166,-0.9175,-0.9183,-0.9208,-0.9207,-0.9212,-0.9223,-0.9234,-0.9237,-0.9239,-0.9247,-0.925,-0.9214,-0.9214,-0.9214,0,-0.9037,-0.906,-0.9065,-0.9081,-0.909,-0.909,-0.9107,-0.9116,-0.9134,-0.914,-0.9136,-0.9167,-0.9176,-0.9199,-0.9205,-0.9212,-0.9216,-0.9211,-0.9236,-0.9238,-0.924,-0.9248,-0.9251,-0.9215,-0.9215,-0.9215,-0.9215,0,-0.9069,-0.9085,-0.9097,-0.9114,-0.9125,-0.9141,-0.9148,-0.9158,-0.9159,-0.9165,-0.9185,-0.9196,-0.9212,-0.9217,-0.9219,-0.9241,-0.9238,-0.9235,-0.9227,-0.9244,-0.9251,-0.9254,-0.9216,-0.9216,-0.9215,-0.9215,0,0,-0.9096,-0.9115,-0.9119,-0.9126,-0.9142,-0.9154,-0.917,-0.9185,-0.9193,-0.9205,-0.9218,-0.9239,-0.9236,-0.9245,-0.9247,-0.9257,-0.9275,-0.9253,-0.9253,-0.9256,-0.9298,-0.93,-0.9303,-0.9274,-0.9275,-0.9275,-0.9296,0,-0.912,-0.9149,-0.9153,-0.9178,-0.9192,-0.9192,-0.9206,-0.9216,-0.9221,-0.9234,-0.924,-0.9254,-0.9249,-0.9254,-0.9264,-0.9271,-0.9283,-0.9269,-0.9286,-0.9286,-0.9282,-0.9307,-0.9309,-0.9329,-0.9299,-0.93,-0.93,0,-0.9151,-0.9164,-0.919,-0.9202,-0.9208,-0.9221,-0.9234,-0.9247,-0.9258,-0.9261,-0.927,-0.9271,-0.9287,-0.9279,-0.93,-0.929,-0.9297,-0.9301,-0.9302,-0.9304,-0.9294,-0.9308,-0.9336,-0.9338,-0.9305,-0.9304,-0.9304,0,-0.9167,-0.9191,-0.9209,-0.9216,-0.923,-0.9239,-0.9245,-0.9256,-0.9265,-0.9276,-0.9282,-0.9295,-0.9302,-0.9313,-0.9317,-0.9311,-0.9337,-0.933,-0.934,-0.934,-0.9345,-0.9345,-0.9373,-0.9351,-0.9351,-0.9351,-0.9351,0,-0.9193,-0.9209,-0.9217,-0.9228,-0.9245,-0.925,-0.9267,-0.9273,-0.9282,-0.9294,-0.9295,-0.9306,-0.9311,-0.9323,-0.9326,-0.9343,-0.9346,-0.9349,-0.9349,-0.9348,-0.9348,-0.9353,-0.9351,-0.9352,-0.9351,-0.9351,-0.9351,0,-0.9214,-0.922,-0.924,-0.9252,-0.9255,-0.9267,-0.9277,-0.9288,-0.9293,-0.9308,-0.9311,-0.9319,-0.9333,-0.9338,-0.9355,-0.9357,-0.9376,-0.9376,-0.9372,-0.9372,-0.9382,-0.938,-0.9414,-0.9418,-0.9393,-0.9393,-0.9394,0,-0.9229,-0.9242,-0.9254,-0.9262,-0.9269,-0.9282,-0.9291,-0.9295,-0.9304,-0.9317,-0.9325,-0.9339,-0.935,-0.9372,-0.9378,-0.9391,-0.9391,-0.9402,-0.9393,-0.9391,-0.939,-0.9389,-0.939,-0.9403,-0.9403,-0.9404,-0.9404,0,-0.9256,-0.9258,-0.927,-0.9283,-0.9293,-0.9304,-0.9314,-0.932,-0.9326,-0.9335,-0.9349,-0.9358,-0.9375,-0.9388,-0.94,-0.9406,-0.9406,-0.9406,-0.9409,-0.9408,-0.9405,-0.9406,-0.9376,-0.9406,-0.9405,-0.9405,-0.9405,-0.9405,-0.9274,-0.9285,-0.9295,-0.9308,-0.9316,-0.9325,-0.9335,-0.9341,-0.9353,-0.9367,-0.9369,-0.9383,-0.9393,-0.941,-0.9416,-0.9427,-0.9424,-0.9429,-0.943,-0.9431,-0.9431,-0.9404,-0.943,-0.943,-0.943,-0.943,-0.943,0,-0.93,-0.9307,-0.9319,-0.9333,-0.9343,-0.9341,-0.9352,-0.936,-0.9373,-0.9382,-0.9393,-0.9408,-0.9421,-0.9428,-0.944,-0.9448,-0.9448,-0.9451,-0.945,-0.9451,-0.9433,-0.9429,-0.945,-0.945,-0.945,-0.945,-0.945,-0.945,-0.9315,-0.9332,-0.9335,-0.9356,-0.9362,-0.9376,-0.9382,-0.939,-0.9397,-0.9414,-0.9425,-0.9429,-0.9437,-0.945,-0.9461,-0.9463,-0.9467,-0.947,-0.9472,-0.9455,-0.9453,-0.945,-0.9447,-0.9471,-0.9471,-0.9489,-0.9489,-0.9489]}]]